Tracking 30743 objects as of 20-Jun-2025
HD Live streaming from Space Station
objects crossing your sky now

ARIANE 5 DEB (SYLDA)

Track ARIANE 5 DEB (SYLDA) now!
10-day predictions


NORAD ID: 29164
Int'l Code: 2006-020C
Perigee: 268.9 km
Apogee: 5,533.2 km
Inclination: 6.8 °
Period: 148.1 minutes
Semi major axis: 9272 km
RCS: 17.7393 m2 (large)
Launch date: May 27, 2006
Source: France (FR)
Launch site: FRENCH GUIANA (FRGUI)

Note: This is SATELLITE DEBRIS
Your satellite tracking list
Your tracking list is empty




NASA's NSSDC Master Catalog

Two Line Element Set (TLE):
1 29164U 06020C   25171.55905869  .00140685 -27288-5  42723-2 0  9990
2 29164   6.8006 201.5207 2838808   1.4549 359.2282  9.72393091365436
Source of the keplerian elements: AFSPC